Погода в Кыре

Погода в Кыре : погода сейчас, прогноз погоды и архив. Всё, что Вы хотите узнать о погоде в Кыре!

Хотите узнать прогноз погоды в Кыре? Тогда Вам сюда: Погода в Кыре

Поиск расширенной информации на нашем сайте:

Другие новости

Новости СМИ2

Главная страница сайта

Новости сайта

03.07.2017

Напоминаем, что на нашем специализированном сайте Метеоцентр.Азия вы можете получить высокодетализированные автоматические прогнозы погоды по пунктам России, СНГ и мира в авиационном формате (включающие направление и скорость ветра, видимость, явления погоды, количество и форму облачности, нижнюю и верхнюю границу облачности).


Погода в Кыре - сегодня

Время (UTC), дата Ветер
(°,м/с) 
Видим.   Явления Облачность Т
(°С)
Тd
(°С)
f(%) Тe
(°С)
Pmin
(гПа)
dP
(гПа)
Po
(мм)
O2
(г/м3)
Тmin Tmax R s Состояние
почвы
06 19.06.18 360 (С) 4{11}  20000 м    8/4 1000 м верхняя 
[Cu med, cong|Ci fib]
+23.1 +2.9 27 +23  1005.8  -1  680  252           
09 19.06.18 350 (С) 20000 м    4/4 1000 м 
[Cu med, cong]
+24.2 +2.3 24 +24  1004.9  -0.6  680  251           
15 19.06.18 320 (СЗ) н/о    ясно 
+11.3 +6.8 74 +12  1011.1  1.1  681  262           
18 19.06.18 тихо ()   н/о    ясно 
+8 +5.5 84 +8  1013.1  0.6  681  266           
21 19.06.18 340 (С) 20000 м    3/3 1000 м 
[Sc]
+6 +3.6 85 +7  1014.1  0.2  682  268           
00 20.06.18 тихо ()   20000 м    4/3 1000 м верхняя 
[Sc|Ci fib]
+13.3 +6.8 65 +13  1010.8  -0.4  681  260  +5.9        влажная 
03 20.06.18 270 (З) 20000 м    8/3 1000 м верхняя 
[Cu hum|Ci fib]
+22.1 +7 38 +22  1006  -1.4  680  252           
06 20.06.18 220 (ЮЗ) 20000 м    8/3 1000 м верхняя 
[Cu med, cong|Ci fib]
+26.1 +5.1 26 +26  1002.6  -1.9  679  249           
09 20.06.18 130 (ЮВ) 20000 м    8/3 1000 м верхняя 
[Cu med, cong|Ci]
+26.5 +5.6 26 +27  1000.3  -1.9  677  248           
15 20.06.18 010 (С) н/о    3/0 средняя 
[Ac lent]
+16.3 +9.3 63 +19  1004.7  1.2  678  256           
18 20.06.18 300 (СЗ) н/о    ясно 
+12 +8.3 78 +13  1006.3  678  260           
21 20.06.18 250 (З) 20000 м    6/0 средняя, верхняя 
[Ac lent|Ci fib]
+9.1 +7.1 87 +10  1007.6  0.2  678  263           
00 21.06.18 260 (З) 20000 м    8/0 средняя, верхняя 
[Ac cast|Ci fib]
+13.4 +9.4 77 +17  1005.4  -0.4  678  258  +8.8        сухая 
03 21.06.18 050 (СВ) 20000 м    8/3 1000 м средняя, верхняя 
[Cu hum|Ac cast|Ci fib]
+22.9 +9.1 41 +25  1000.8  -1.1  677  250           
06 21.06.18 080 (В) 20000 м    9/3 1000 м кучево-дожд., средняя, верхняя 
[Cb cap|Ac trans|Ci]
+27.4 +8.2 30 +28  997.2  -1.9  676  246           
12 21.06.18 270 (З) 4{10}  20000 м  {ливн. осадки}  9/4 1000 м кучево-дожд., средняя 
[Cb cap|Ac trans]
+19.2 +13 67 +28  1000.9  -0.4  676  252    +27.4     
15 21.06.18 220 (ЮЗ) н/о  {ливн. осадки}  9/4 1000 м кучево-дожд., средняя 
[Cb cap|Ac trans]
+17 +12.9 77 +26  1001.5  0.1  676  254           
18 21.06.18 180 (Ю) н/о  {ливн. осадки}  8/3 1000 м кучево-дожд., средняя 
[Cb cap|Ac trans]
+14.9 +12.5 86 +23  1002.5  0.2  676  256           
21 21.06.18 280 (З) 20000 м    9/4 1000 м кучево-дожд., средняя 
[Cb cap|Ac trans]
+14.2 +12.2 88 +22  1003.3  0.5  677  257           
00 22.06.18 240 (ЮЗ) 20000 м    8/4 1000 м средняя 
[Sc|Ac trans]
+16.8 +13.4 80 +27  1002.2  -0.2  677  254  +14    0.5    влажная 
03 22.06.18 240 (ЮЗ) 20000 м    8/3 1000 м верхняя 
[Cu med, cong|Ci]
+22.6 +13.5 56 +31  999.6  -0.5  676  249           
06 22.06.18 320 (СЗ) 20000 м  {гроза}  8/4 1000 м кучево-дожд., средняя, верхняя 
[Cb cap|Ac trans|Ci fib]
+25.4 +11.3 41 +31  997.6  -1  675  247           
09 22.06.18 230 (ЮЗ) 20000 м  {гроза}  8/3 1000 м кучево-дожд., средняя, верхняя 
[Cb cap|Ac trans|Ci fib]
+26.3 +11.5 40 +32  997.3  675  246           
12 22.06.18 тихо ()   20000 м  {гроза}  8/3 1000 м кучево-дожд., средняя, верхняя 
[Cb cap|Ac trans|Ci fib]
+23.6 +13.2 52 +32  999.2  676  248    +27       
15 22.06.18 020 (С) н/о    3/0 средняя 
[Ac lent]
+16.2 +11.3 73 +23  1003.2  1.1  677  255           
Время (UTC), дата Ветер
(°,м/с) 
Видим.   Явления Облачность Т
(°С)
Тd
(°С)
f(%) Тe
(°С)
Pmin
(гПа)
dP
(гПа)
Po
(мм)
O2
(г/м3)
Тmin Tmax R s Состояние
почвы

Для получения пояснительной информации подведите курсор к названию столбца.

ПОГОДА в Кыре - архив

Всё, что Вы хотите узнать о погоде в Кыре - удобно и подробно!

Выберите нужную дату (начиная с 1 января 2015* года) и нажмите кнопку "Найти".
Будут отображены архивные сводки погоды по пункту Кыра, начиная с указанной даты.


Отображать данные в формате CSV (для использования в таблицах Excel)


Внимание! Наш архив погоды предназначен исключительно для личного некоммерческого использования в познавательных целях. Если Вам необходимы официальные справки о состоянии погоды (для производственных, юридических, коммерческих и т.п. целей), обращайтесь в органы Росгидромета.

*Примечание: данная дата относится к архиву по метеостанциям СССР (Россия, СНГ, Балтия).
Архив по метеостанциям Зарубежной Европы и Азии (кроме Китая) хранится 10 дней, по другим регионам земного шара (Китай, Африка, Америка, Австралия, Океания) - 1 день.

Кыра - район местоположения метеостанции


Название, широта, долгота, высота метеостанции:
Кыра 49.6°ш. 112°д. 908 м над ур. моря [Российская Федерация]

Дополнительная информация

В oтличие oт бoльшинства пoгoдных сайтoв мы публикуем пoдрoбную метеoинфoрмацию в детальнoм прoфессиoнальнoм фoрмате.

Характеристики температуры и влажнoсти вoздуха измеряются на высoте 2 м в тени вдали oт зданий и деревьев.
Скoрoсть ветра измеряется на высoте 10 м (на урoвне рoста челoвека скoрoсть ветра ниже в 1.5-2 раза). Если метеoстанция нахoдится в гoрoде или в лесу, тo скoрoсть ветра занижена на 2-4 м/с пo сравнению с oткрытым местoм. Скoрoсть ветра над акватoриями крупных рек и oзёр, а также на вершинах хoлмoв на 2-5 м/с выше, чем в oбычных услoвиях.
Атмoсфернoе давление в разных тoчках местнoсти мoжет значительнo oтличаться oт давления на метеoстанции, в зависимoсти oт услoвий рельефа (при пoдъёме на 10 м давление пoнижается примернo на 1 мм рт.ст.).